[[{"header":{"parameterUnit":"m.s-1","parameterCategory":1,"la1":30.2991,"la2":30.254,"lo1":-89.0895,"lo2":-89.0444,"dy":0.0017,"dx":0.0017,"nx":28,"ny":28,"refTime":"2025-11-16T03:00:00:Z","depth":0,"parameterNumber":2,"parameterNumberName":"U-component_of_WINDS"},"data":[0,0,0,0,0,0,0,0,0,0,0,0,0,0,0,0,0,0,0,0,0,0,0,0,0,0,0,0,0,0,0,0,0,0,0,0,0,0,0,0,0,0,0,0,0,0,0,0,0,0,0,0,0,0,0,0,0,0,0.8372,0.8373,0,0.842,0.842,0.8421,0.8419,0.8418,0.8418,0.8417,0.8464,0.8466,0.8468,0,0,0,0,0,0,0,0,0,0,0,0,0,0.8278,0.828,0.8372,0.8373,0.8374,0.842,0.842,0.8421,0.8419,0.8418,0.8418,0.8417,0.8463,0.8466,0.8468,0,0,0,0,0,0,0,0,0,0,0,0,0,0.8322,0.8281,0.8372,0.8378,0.8379,0.842,0.842,0.8421,0.8419,0.8418,0.8417,0.8416,0.8463,0.8465,0.8468,0.8505,0,0,0.8477,0.8478,0,0,0,0,0,0,0,0,0.8319,0.8325,0.8377,0.8378,0.8379,0.8413,0.8405,0.8449,0.842,0.8404,0.8417,0.8416,0.8448,0.8452,0.8463,0.8507,0.8509,0.8477,0.8479,0.848,0.8481,0,0,0,0,0,0,0,0.8316,0.8323,0.8391,0.8378,0.8379,0.8378,0.8383,0.8413,0.8431,0.8405,0.8405,0.8411,0.8448,0.846,0.8464,0.851,0.8477,0.8479,0.8481,0.8482,0.8588,0.8589,0,0,0,0,0,0,0.8312,0.8321,0.839,0.8393,0.8346,0.8381,0.8386,0.8403,0.843,0.8434,0.8412,0.8411,0.8456,0.846,0.8465,0.851,0.848,0.8482,0.8484,0.8586,0.8588,0.8589,0,0,0,0,0,0,0.831,0.8319,0.8388,0.8357,0.8365,0.8383,0.8402,0.8404,0.8416,0.8435,0.8438,0.8421,0.8455,0.8461,0.8495,0.8512,0.8484,0.8486,0.8585,0.8587,0.8588,0.8601,0,0,0,0,0,0,0.8308,0.8318,0.8332,0.8357,0.8367,0.8417,0.8403,0.8406,0.8421,0.842,0.8445,0.8448,0.8455,0.8491,0.8498,0.8515,0.8488,0.8584,0.8586,0.8588,0.8599,0.8603,0.8606,0,0,0,0,0,0.8304,0.8334,0.8333,0.8342,0.8386,0.8418,0.8424,0.8432,0.8423,0.8437,0.8449,0.8447,0.8509,0.8495,0.8503,0.8521,0.8583,0.8585,0.8588,0.8598,0.8602,0.8606,0,0,0,0,0,0,0.831,0.8337,0.8337,0.8375,0.8395,0.8418,0.8437,0.8437,0.8459,0.8457,0.8465,0.8471,0.8505,0.8516,0.85,0.8558,0.8545,0.8549,0.8549,0.8554,0.8557,0.8554,0.8491,0,0,0,0,0,0.8316,0.834,0.8363,0.8394,0.8404,0.8419,0.8433,0.8438,0.8458,0.8466,0.8481,0.85,0.8524,0.854,0.8563,0.8601,0.8606,0.8617,0.8621,0.8624,0.8627,0.8648,0.8653,0.8597,0.8597,0.8597,0,0,0.8327,0.8345,0.836,0.8396,0.8411,0.8436,0.8426,0.8452,0.8471,0.847,0.8503,0.8515,0.8537,0.8573,0.859,0.8584,0.8644,0.8627,0.8629,0.8631,0.8651,0.8656,0.8661,0.8599,0.8599,0.8598,0,0,0.8362,0.8378,0.8406,0.8423,0.8447,0.8456,0.8463,0.8487,0.8495,0.8528,0.8528,0.855,0.8591,0.8607,0.862,0.8661,0.8659,0.8668,0.8686,0.8707,0.8711,0.8715,0.8729,0.8734,0.8672,0.8672,0.8672,0,0.8373,0.8412,0.8421,0.8448,0.8463,0.8464,0.8493,0.8508,0.8538,0.8548,0.8541,0.8593,0.8608,0.8648,0.8658,0.8668,0.8676,0.8665,0.871,0.8714,0.8718,0.8731,0.8737,0.8673,0.8673,0.8673,0.8672,0,0.8425,0.8451,0.8471,0.8501,0.8519,0.8546,0.8559,0.8575,0.8579,0.8589,0.8623,0.8641,0.8668,0.8678,0.8681,0.8718,0.8714,0.8708,0.8695,0.8724,0.8737,0.8742,0.8674,0.8674,0.8673,0.8673,0,0,0.8463,0.8498,0.8505,0.8519,0.8546,0.8566,0.8594,0.8621,0.8635,0.8656,0.8679,0.8714,0.8709,0.8724,0.8729,0.8747,0.8778,0.8739,0.874,0.8745,0.882,0.8824,0.883,0.8777,0.8778,0.8779,0.8818,0,0.85,0.855,0.8559,0.8602,0.8627,0.8628,0.8652,0.8671,0.8681,0.8703,0.8715,0.8739,0.8731,0.874,0.8758,0.877,0.8793,0.8768,0.8798,0.8799,0.8792,0.8837,0.8841,0.8877,0.8823,0.8824,0.8825,0,0.855,0.8573,0.8619,0.8643,0.8653,0.8675,0.87,0.8721,0.8743,0.8749,0.8766,0.8769,0.8797,0.8783,0.8822,0.8805,0.8818,0.8826,0.8827,0.883,0.8814,0.8841,0.8889,0.8894,0.8833,0.8832,0.8832,0,0.8573,0.8616,0.8649,0.866,0.8689,0.8704,0.8717,0.8737,0.8753,0.8775,0.8785,0.881,0.8823,0.8842,0.8852,0.884,0.889,0.8876,0.8896,0.8895,0.8905,0.8905,0.8956,0.8914,0.8914,0.8914,0.8914,0,0.8614,0.8641,0.866,0.868,0.8711,0.8721,0.8751,0.8763,0.8782,0.8804,0.8807,0.8827,0.8839,0.8861,0.8868,0.8899,0.8905,0.8911,0.8913,0.8911,0.891,0.8919,0.8917,0.8916,0.8915,0.8915,0.8915,0,0.8645,0.8658,0.8694,0.8719,0.8725,0.8747,0.8768,0.8787,0.8798,0.8826,0.8833,0.885,0.8876,0.8888,0.892,0.8925,0.896,0.896,0.8953,0.8954,0.8972,0.897,0.9031,0.9039,0.8992,0.8993,0.8993,0,0.8669,0.8691,0.8718,0.8734,0.8747,0.8772,0.8788,0.8799,0.8815,0.8841,0.8858,0.8884,0.8906,0.8948,0.8962,0.8987,0.8987,0.9007,0.8991,0.8988,0.8987,0.8986,0.8988,0.901,0.901,0.9011,0.9011,0,0.8711,0.8717,0.8741,0.8767,0.8786,0.8807,0.8828,0.884,0.8854,0.8872,0.89,0.8917,0.895,0.8976,0.9002,0.9014,0.9015,0.9016,0.9022,0.9019,0.9015,0.9017,0.8961,0.9014,0.9014,0.9014,0.9013,0.9013,0.874,0.8759,0.8781,0.8808,0.8824,0.8844,0.8863,0.8877,0.89,0.8928,0.8933,0.8962,0.8983,0.9018,0.9031,0.9054,0.9049,0.9057,0.9059,0.9061,0.9062,0.9011,0.9059,0.9059,0.9058,0.9058,0.9058,0,0.8781,0.8796,0.882,0.8849,0.887,0.887,0.8892,0.8909,0.8935,0.8955,0.8977,0.9008,0.9034,0.9051,0.9077,0.9091,0.9092,0.9098,0.9097,0.9099,0.9065,0.9058,0.9097,0.9097,0.9097,0.9097,0.9097,0.9097,0.8806,0.8838,0.8847,0.8888,0.8902,0.8931,0.8944,0.8962,0.8978,0.9013,0.9035,0.9046,0.9064,0.9092,0.9115,0.9119,0.9129,0.9134,0.9138,0.9106,0.9102,0.9098,0.9091,0.9136,0.9136,0.9171,0.9171,0.9171]},{"header":{"parameterUnit":"m.s-1","parameterCategory":1,"la1":30.2991,"la2":30.254,"lo1":-89.0895,"lo2":-89.0444,"dy":0.0017,"dx":0.0017,"nx":28,"ny":28,"refTime":"2025-11-16T03:00:00:Z","depth":0,"parameterNumber":3,"parameterNumberName":"V-component_of_WINDS"},"data":[0,0,0,0,0,0,0,0,0,0,0,0,0,0,0,0,0,0,0,0,0,0,0,0,0,0,0,0,0,0,0,0,0,0,0,0,0,0,0,0,0,0,0,0,0,0,0,0,0,0,0,0,0,0,0,0,0,0,1.8734,1.8733,0,1.8657,1.8656,1.8655,1.859,1.8589,1.8589,1.8588,1.8507,1.8506,1.8504,0,0,0,0,0,0,0,0,0,0,0,0,0,1.8826,1.8825,1.8734,1.8733,1.8732,1.8657,1.8656,1.8655,1.859,1.8589,1.8589,1.8588,1.8508,1.8506,1.8504,0,0,0,0,0,0,0,0,0,0,0,0,0,1.8771,1.8825,1.8734,1.8691,1.8686,1.8657,1.8656,1.8654,1.859,1.8589,1.8588,1.8587,1.8508,1.8506,1.8504,1.851,0,0,1.8497,1.8496,0,0,0,0,0,0,0,0,1.8774,1.8768,1.8698,1.8694,1.8689,1.8632,1.8658,1.8606,1.8591,1.8627,1.8588,1.8587,1.8549,1.8544,1.8531,1.8507,1.8503,1.8497,1.8495,1.8494,1.8494,0,0,0,0,0,0,0,1.8778,1.8771,1.8703,1.8697,1.8692,1.8675,1.8667,1.8648,1.8595,1.8624,1.8619,1.8611,1.8547,1.8534,1.8529,1.8502,1.8497,1.8495,1.8493,1.8492,1.8481,1.8482,0,0,0,0,0,0,1.8789,1.8775,1.8706,1.8701,1.873,1.8675,1.8665,1.8651,1.8595,1.8585,1.8612,1.8608,1.8538,1.8532,1.8526,1.8532,1.8494,1.8492,1.8491,1.848,1.8482,1.8483,0,0,0,0,0,0,1.8791,1.8783,1.8709,1.8736,1.8726,1.8674,1.866,1.865,1.8637,1.8586,1.8576,1.8608,1.8537,1.8529,1.8515,1.8528,1.8491,1.8489,1.8479,1.8481,1.8482,1.8542,0,0,0,0,0,0,1.8794,1.8785,1.8786,1.8737,1.8725,1.87,1.866,1.8649,1.8634,1.8628,1.858,1.8571,1.8536,1.8519,1.8513,1.8524,1.8487,1.8478,1.848,1.8482,1.8539,1.8546,1.8552,0,0,0,0,0,1.8798,1.8806,1.8787,1.8779,1.8726,1.8701,1.8693,1.8653,1.8635,1.8637,1.8604,1.8573,1.8528,1.8518,1.8511,1.8522,1.8477,1.8479,1.8482,1.8536,1.8545,1.8552,0,0,0,0,0,0,1.8856,1.8798,1.8777,1.8769,1.8741,1.869,1.869,1.8663,1.8638,1.8634,1.8584,1.8574,1.8567,1.8542,1.8533,1.8526,1.8498,1.8499,1.8542,1.855,1.8556,1.8562,1.8485,0,0,0,0,0,1.8869,1.8854,1.8803,1.8801,1.8788,1.8742,1.8729,1.8701,1.8669,1.8657,1.8623,1.8593,1.8572,1.8559,1.8537,1.8535,1.8525,1.8539,1.8546,1.8551,1.8553,1.8552,1.8558,1.8491,1.8491,1.8491,0,0,1.8893,1.886,1.8853,1.8812,1.8787,1.8773,1.8732,1.8718,1.8707,1.8654,1.864,1.8615,1.8578,1.8571,1.8566,1.8551,1.8569,1.8554,1.8559,1.8557,1.8555,1.8562,1.8567,1.8492,1.8492,1.8492,0,0,1.8932,1.8904,1.89,1.8876,1.8839,1.8809,1.8808,1.8762,1.8744,1.8729,1.869,1.8676,1.8641,1.8617,1.86,1.8633,1.8604,1.8627,1.866,1.866,1.8665,1.867,1.8683,1.8688,1.8628,1.8629,1.8629,0,1.8967,1.8944,1.8902,1.8891,1.8875,1.8828,1.8825,1.8803,1.876,1.875,1.8734,1.8691,1.8662,1.865,1.8659,1.8646,1.8645,1.8632,1.8668,1.8672,1.8676,1.8688,1.8693,1.8632,1.8631,1.8631,1.8631,0,1.899,1.8975,1.8977,1.8938,1.8922,1.8915,1.8872,1.8861,1.8835,1.8807,1.8794,1.8759,1.873,1.8725,1.8698,1.871,1.8702,1.8677,1.8648,1.8686,1.8697,1.8701,1.8636,1.8635,1.8634,1.8634,0,0,1.9062,1.9002,1.9004,1.8987,1.8943,1.8931,1.8922,1.8895,1.8887,1.886,1.8852,1.8825,1.8803,1.8784,1.8755,1.8755,1.8785,1.8731,1.8729,1.8743,1.8798,1.8818,1.8824,1.8766,1.8766,1.8767,1.8802,0,1.9094,1.9077,1.904,1.9034,1.9021,1.8977,1.897,1.8943,1.8917,1.8901,1.8872,1.8855,1.8826,1.8815,1.8813,1.8782,1.8796,1.8779,1.8759,1.8759,1.8771,1.8829,1.8848,1.8883,1.8806,1.8806,1.8807,0,1.9129,1.9106,1.91,1.9059,1.9052,1.9046,1.902,1.9006,1.8975,1.8956,1.8937,1.8905,1.8894,1.8868,1.8854,1.8843,1.8833,1.8817,1.8817,1.8814,1.8786,1.8829,1.8893,1.8899,1.8812,1.8812,1.8811,0,1.9184,1.9151,1.9144,1.913,1.9082,1.908,1.906,1.9028,1.9015,1.8992,1.8983,1.8958,1.8945,1.8928,1.8891,1.8874,1.8881,1.8851,1.8866,1.8868,1.887,1.887,1.8935,1.8862,1.8862,1.8862,1.8862,0,1.9224,1.9222,1.9168,1.9164,1.9161,1.9119,1.9117,1.9093,1.9065,1.9056,1.9016,1.9008,1.8959,1.8946,1.8917,1.8911,1.8905,1.889,1.8883,1.8894,1.8896,1.8887,1.8884,1.8863,1.8863,1.8863,1.8862,0,1.9285,1.9249,1.9238,1.9195,1.9184,1.9184,1.9147,1.9141,1.9113,1.9102,1.9097,1.9054,1.9036,1.8998,1.8969,1.895,1.8952,1.8937,1.8963,1.8958,1.8976,1.8976,1.9037,1.9044,1.8967,1.8967,1.8968,0,1.9313,1.9311,1.9269,1.926,1.9242,1.9228,1.9215,1.9174,1.9162,1.9129,1.9127,1.9107,1.9089,1.9063,1.9029,1.9008,1.8993,1.9017,1.899,1.9003,1.8996,1.8997,1.8997,1.9023,1.9024,1.9025,1.9025,0,1.9369,1.9351,1.9334,1.9312,1.9298,1.9279,1.9256,1.9252,1.9205,1.9194,1.9177,1.9163,1.9135,1.9116,1.909,1.907,1.9041,1.9034,1.9037,1.9049,1.9065,1.9058,1.898,1.9033,1.9032,1.9032,1.9031,1.9031,1.9415,1.9412,1.9382,1.9365,1.9345,1.9326,1.932,1.9292,1.9277,1.9252,1.9228,1.9214,1.9185,1.9147,1.9129,1.9117,1.9102,1.9106,1.9107,1.9109,1.9115,1.9066,1.9112,1.9112,1.9112,1.9111,1.9111,0,1.9469,1.9448,1.9433,1.9405,1.9392,1.9367,1.9342,1.9333,1.9321,1.9297,1.928,1.9261,1.9243,1.9209,1.9188,1.9185,1.9172,1.9181,1.9181,1.9178,1.9128,1.9129,1.9193,1.9193,1.9193,1.9193,1.9193,1.9193,1.9496,1.949,1.947,1.9455,1.9434,1.9419,1.9408,1.9391,1.9371,1.9352,1.9338,1.9316,1.9288,1.9265,1.9248,1.9238,1.9233,1.9248,1.9234,1.9189,1.9181,1.9174,1.9174,1.9247,1.9247,1.9285,1.9285,1.9286]}]]